• In Schweiz
  • Länderverzeichnis
  • Für 7 Tage
  • Wassertemperatur
  • Satellitenkarten
  • Wetterkarte
  • Widgets
  • user-avatar
    Anmelden

    Stündliche Wetter Rodnichnoe

    Heute, 23 Oktober, Dienstag

    Zeit Temperatur Niederschläge Wind Luftdruck Luftfeuchtigkeit
    00:00 +3°C° 0 mm 1 m/S 744 mmHg 69%
    01:00 +3°C° 0 mm 1 m/S 744 mmHg 70%
    02:00 +3°C° 0 mm 1 m/S 743 mmHg 70%
    03:00 +3°C° 0 mm 1 m/S 743 mmHg 70%
    04:00 +2°C° 0 mm 1 m/S 743 mmHg 74%
    05:00 +2°C° 0 mm 1 m/S 742 mmHg 74%
    06:00 +1°C° 0 mm 1 m/S 742 mmHg 73%
    07:00 +1°C° 0 mm 1 m/S 742 mmHg 73%
    08:00 +2°C° 0 mm 2 m/S 742 mmHg 67%
    09:00 +3°C° 0 mm 2 m/S 742 mmHg 61%
    10:00 +4°C° 0 mm 3 m/S 741 mmHg 54%
    11:00 +5°C° 0 mm 3 m/S 741 mmHg 50%
    12:00 +6°C° 0 mm 4 m/S 741 mmHg 46%
    13:00 +8°C° 0 mm 4 m/S 740 mmHg 43%
    14:00 +8°C° 0 mm 4 m/S 740 mmHg 43%
    15:00 +8°C° 0 mm 4 m/S 739 mmHg 44%
    16:00 +8°C° 0 mm 4 m/S 738 mmHg 44%
    17:00 +8°C° 0 mm 4 m/S 738 mmHg 47%
    18:00 +7°C° 0 mm 4 m/S 737 mmHg 50%
    19:00 +6°C° 0 mm 4 m/S 737 mmHg 53%
    20:00 +6°C° 0 mm 4 m/S 736 mmHg 56%
    21:00 +7°C° 0 mm 4 m/S 736 mmHg 59%
    22:00 +7°C° 0 mm 4 m/S 735 mmHg 62%
    23:00 +8°C° 0 mm 5 m/S 735 mmHg 63%

    Morgen, 24 Oktober, Mittwoch

    Zeit Temperatur Niederschläge Wind Luftdruck Luftfeuchtigkeit
    00:00 +8°C° 0 mm 5 m/S 734 mmHg 64%
    01:00 +9°C° 0 mm 6 m/S 734 mmHg 65%
    02:00 +9°C° 0 mm 6 m/S 734 mmHg 67%
    03:00 +9°C° 0 mm 6 m/S 734 mmHg 69%
    04:00 +9°C° 0 mm 6 m/S 733 mmHg 71%
    05:00 +8°C° 0 mm 6 m/S 733 mmHg 73%
    06:00 +8°C° 0 mm 7 m/S 733 mmHg 75%
    07:00 +8°C° 0 mm 7 m/S 733 mmHg 78%
    08:00 +8°C° 0.1 mm 7 m/S 733 mmHg 79%
    09:00 +8°C° 0.1 mm 7 m/S 733 mmHg 80%
    10:00 +8°C° 0.1 mm 7 m/S 733 mmHg 81%
    11:00 +9°C° 0.1 mm 7 m/S 732 mmHg 80%
    12:00 +9°C° 0.1 mm 7 m/S 732 mmHg 78%
    13:00 +10°C° 0.1 mm 6 m/S 732 mmHg 76%
    14:00 +10°C° 0 mm 6 m/S 732 mmHg 75%
    15:00 +12°C° 0 mm 5 m/S 732 mmHg 73%
    16:00 +12°C° 0 mm 5 m/S 732 mmHg 72%
    17:00 +12°C° 0.1 mm 5 m/S 732 mmHg 74%
    18:00 +11°C° 0.1 mm 4 m/S 732 mmHg 75%
    19:00 +11°C° 0.1 mm 4 m/S 731 mmHg 77%
    20:00 +11°C° 0 mm 4 m/S 731 mmHg 77%
    21:00 +10°C° 0 mm 4 m/S 731 mmHg 77%
    22:00 +10°C° 0 mm 4 m/S 731 mmHg 77%
    23:00 +8°C° 0 mm 4 m/S 731 mmHg 77%

    übermorgen, 25 Oktober, Donnerstag

    Zeit Temperatur Niederschläge Wind Luftdruck Luftfeuchtigkeit
    00:00 +8°C° 0 mm 4 m/S 731 mmHg 77%
    01:00 +7°C° 0 mm 4 m/S 731 mmHg 77%
    02:00 +7°C° 0 mm 4 m/S 731 mmHg 78%
    03:00 +7°C° 0 mm 5 m/S 731 mmHg 79%
    04:00 +7°C° 0 mm 5 m/S 730 mmHg 80%
    05:00 +7°C° 0 mm 5 m/S 730 mmHg 81%
    06:00 +5°C° 0 mm 6 m/S 730 mmHg 82%
    07:00 +5°C° 0 mm 6 m/S 729 mmHg 83%
    08:00 +6°C° 0 mm 7 m/S 729 mmHg 78%
    09:00 +9°C° 0 mm 7 m/S 729 mmHg 72%
    10:00 +10°C° 0 mm 8 m/S 729 mmHg 67%
    11:00 +11°C° 0 mm 8 m/S 728 mmHg 63%
    12:00 +13°C° 0 mm 9 m/S 728 mmHg 59%
    13:00 +15°C° 0 mm 9 m/S 727 mmHg 55%
    14:00 +16°C° 0 mm 8 m/S 727 mmHg 54%
    15:00 +16°C° 0 mm 8 m/S 726 mmHg 53%
    16:00 +16°C° 0 mm 7 m/S 726 mmHg 52%
    17:00 +16°C° 0 mm 8 m/S 726 mmHg 53%
    18:00 +16°C° 0 mm 8 m/S 725 mmHg 55%
    19:00 +15°C° 0 mm 8 m/S 725 mmHg 56%
    20:00 +15°C° 0 mm 9 m/S 725 mmHg 54%
    21:00 +15°C° 0 mm 9 m/S 725 mmHg 51%
    22:00 +15°C° 0 mm 9 m/S 724 mmHg 49%
    23:00 +15°C° 0 mm 9 m/S 724 mmHg 48%

    26 Oktober, Freitag

    Zeit Temperatur Niederschläge Wind Luftdruck Luftfeuchtigkeit
    00:00 +15°C° 0 mm 9 m/S 724 mmHg 47%
    01:00 +13°C° 0 mm 8 m/S 724 mmHg 46%
    02:00 +13°C° 0 mm 8 m/S 723 mmHg 47%
    03:00 +14°C° 0 mm 7 m/S 723 mmHg 47%
    04:00 +14°C° 0 mm 7 m/S 723 mmHg 47%
    05:00 +13°C° 0.4 mm 6 m/S 723 mmHg 54%
    06:00 +12°C° 0.4 mm 5 m/S 724 mmHg 60%
    07:00 +10°C° 0.4 mm 5 m/S 724 mmHg 67%
    08:00 +11°C° 0.5 mm 4 m/S 724 mmHg 73%
    09:00 +11°C° 0.5 mm 4 m/S 725 mmHg 79%
    10:00 +10°C° 0.5 mm 3 m/S 725 mmHg 85%
    11:00 +11°C° 0 mm 4 m/S 726 mmHg 75%
    12:00 +11°C° 0 mm 4 m/S 726 mmHg 66%
    13:00 +10°C° 0 mm 5 m/S 727 mmHg 56%
    14:00 +10°C° 0 mm 5 m/S 727 mmHg 54%
    15:00 +10°C° 0 mm 4 m/S 727 mmHg 52%
    16:00 +10°C° 0 mm 4 m/S 728 mmHg 50%
    17:00 +8°C° 0 mm 4 m/S 728 mmHg 54%
    18:00 +7°C° 0 mm 4 m/S 729 mmHg 57%
    19:00 +8°C° 0 mm 3 m/S 729 mmHg 61%
    20:00 +7°C° 0 mm 3 m/S 729 mmHg 63%
    21:00 +7°C° 0 mm 3 m/S 730 mmHg 66%
    22:00 +5°C° 0 mm 4 m/S 730 mmHg 68%
    23:00 +5°C° 0 mm 3 m/S 731 mmHg 70%

    27 Oktober, Samstag

    Zeit Temperatur Niederschläge Wind Luftdruck Luftfeuchtigkeit
    00:00 +4°C° 0 mm 3 m/S 731 mmHg 73%
    01:00 +4°C° 0 mm 3 m/S 731 mmHg 75%
    02:00 +3°C° 0 mm 3 m/S 732 mmHg 76%
    03:00 +2°C° 0 mm 3 m/S 732 mmHg 77%
    04:00 +2°C° 0 mm 3 m/S 732 mmHg 78%
    05:00 +3°C° 0 mm 2 m/S 733 mmHg 77%
    06:00 +2°C° 0 mm 2 m/S 733 mmHg 77%
    07:00 +2°C° 0 mm 2 m/S 733 mmHg 76%
    08:00 +2°C° 0 mm 3 m/S 733 mmHg 71%
    09:00 +3°C° 0 mm 3 m/S 734 mmHg 66%
    10:00 +4°C° 0 mm 3 m/S 734 mmHg 61%
    11:00 +5°C° 0 mm 4 m/S 734 mmHg 58%
    12:00 +5°C° 0 mm 4 m/S 734 mmHg 55%
    13:00 +6°C° 0 mm 5 m/S 734 mmHg 52%
    14:00 +6°C° 0 mm 5 m/S 734 mmHg 51%
    15:00 +5°C° 0 mm 5 m/S 735 mmHg 50%
    16:00 +5°C° 0 mm 5 m/S 735 mmHg 49%
    17:00 +4°C° 0 mm 4 m/S 735 mmHg 53%
    18:00 +4°C° 0 mm 4 m/S 736 mmHg 57%
    19:00 +3°C° 0 mm 3 m/S 736 mmHg 61%
    20:00 +2°C° 0 mm 3 m/S 736 mmHg 64%
    21:00 +1°C° 0 mm 4 m/S 737 mmHg 67%
    22:00 +1°C° 0 mm 4 m/S 737 mmHg 70%
    23:00 +1°C° 0 mm 4 m/S 737 mmHg 71%

    28 Oktober, Sonntag

    Zeit Temperatur Niederschläge Wind Luftdruck Luftfeuchtigkeit
    00:00 +1°C° 0 mm 4 m/S 737 mmHg 73%
    01:00 0°C° 0 mm 4 m/S 737 mmHg 74%
    02:00 +1°C° 0 mm 5 m/S 737 mmHg 74%
    03:00 +1°C° 0 mm 6 m/S 736 mmHg 73%
    04:00 0°C° 0 mm 7 m/S 736 mmHg 72%
    05:00 +1°C° 0.1 mm 8 m/S 736 mmHg 72%
    06:00 +1°C° 0.1 mm 9 m/S 736 mmHg 72%
    07:00 +1°C° 0.1 mm 10 m/S 735 mmHg 72%
    08:00 +2°C° 1.2 mm 10 m/S 735 mmHg 75%
    09:00 +2°C° 1.2 mm 10 m/S 735 mmHg 77%
    10:00 +3°C° 1.2 mm 11 m/S 734 mmHg 80%
    11:00 +3°C° 1.6 mm 10 m/S 734 mmHg 82%
    12:00 +5°C° 1.6 mm 10 m/S 734 mmHg 85%
    13:00 +5°C° 1.6 mm 10 m/S 734 mmHg 87%
    14:00 +6°C° 1.4 mm 9 m/S 734 mmHg 84%
    15:00 +6°C° 1.4 mm 8 m/S 734 mmHg 82%
    16:00 +8°C° 1.4 mm 7 m/S 735 mmHg 79%
    17:00 +7°C° 0.1 mm 6 m/S 736 mmHg 77%
    18:00 +5°C° 0.1 mm 6 m/S 736 mmHg 75%
    19:00 +5°C° 0.1 mm 5 m/S 737 mmHg 73%
    20:00 +5°C° 0 mm 5 m/S 738 mmHg 74%
    21:00 +5°C° 0 mm 4 m/S 738 mmHg 75%
    22:00 +4°C° 0 mm 4 m/S 739 mmHg 76%
    23:00 +4°C° 0 mm 4 m/S 739 mmHg 78%

    29 Oktober, Montag

    Zeit Temperatur Niederschläge Wind Luftdruck Luftfeuchtigkeit
    00:00 +3°C° 0 mm 4 m/S 740 mmHg 79%
    01:00 +3°C° 0 mm 4 m/S 740 mmHg 81%
    02:00 +3°C° 0 mm 4 m/S 741 mmHg 83%
    03:00 +1°C° 0 mm 4 m/S 741 mmHg 84%
    04:00 +1°C° 0 mm 4 m/S 742 mmHg 86%
    05:00 +1°C° 0 mm 4 m/S 742 mmHg 87%
    06:00 0°C° 0 mm 4 m/S 743 mmHg 88%
    07:00 0°C° 0 mm 4 m/S 743 mmHg 89%
    08:00 +1°C° 0 mm 4 m/S 744 mmHg 85%
    09:00 +3°C° 0 mm 4 m/S 744 mmHg 80%
    10:00 +4°C° 0 mm 4 m/S 745 mmHg 76%
    11:00 +4°C° 0 mm 4 m/S 745 mmHg 72%
    12:00 +5°C° 0 mm 4 m/S 745 mmHg 68%
    13:00 +6°C° 0 mm 4 m/S 746 mmHg 64%
    14:00 +6°C° 0 mm 4 m/S 746 mmHg 65%
    15:00 +7°C° 0 mm 3 m/S 746 mmHg 66%
    16:00 +5°C° 0 mm 3 m/S 747 mmHg 67%
    17:00 +5°C° 0 mm 3 m/S 747 mmHg 70%
    18:00 +6°C° 0 mm 2 m/S 747 mmHg 74%
    19:00 +5°C° 0 mm 2 m/S 748 mmHg 77%
    20:00 +6°C° 0.2 mm 1 m/S 748 mmHg 79%
    21:00 +6°C° 0.2 mm 1 m/S 748 mmHg 81%
    22:00 +6°C° 0.2 mm 1 m/S 748 mmHg 82%
    23:00 +6°C° 0.1 mm 1 m/S 748 mmHg 83%
    Mehr zeigen